ANZ264 YMML-NZQN

Flight info

Callsign ANZ264
Flight time N/A
Altitude 41000
Route CORRS Y21 DADAD DCT 42S155E 43S160E DCT BUGBA P753 ADKOS
Aircraft A359/H-SDE2E3GHIJ3J4J5LM1ORWXY/LB1D1

Departure

Time N/A
Airport Melbourne Airport (YMML)

Arrival

Time 2026-05-07 23:37
Airport Queenstown Airport (NZQN)
Time Latitude Longitude Altitude Speed Heading
2026-05-07 21:56 -40.19636 152.51905 33795 ft 480 kts 141°
2026-05-07 21:56 -40.22001 152.55026 34020 ft 485 kts 140°
2026-05-07 21:56 -40.24387 152.58173 34357 ft 486 kts 140°
2026-05-07 21:56 -40.26765 152.61318 34787 ft 486 kts 140°
2026-05-07 21:57 -40.29112 152.64425 35156 ft 486 kts 140°
2026-05-07 21:57 -40.31499 152.67589 35497 ft 487 kts 140°
2026-05-07 21:57 -40.33889 152.70760 35829 ft 489 kts 140°
2026-05-07 21:57 -40.36285 152.73941 36159 ft 490 kts 140°
2026-05-07 21:58 -40.38684 152.77131 36483 ft 491 kts 140°
2026-05-07 21:58 -40.41082 152.80323 36816 ft 491 kts 140°
2026-05-07 21:58 -40.43482 152.83521 37144 ft 493 kts 139°
2026-05-07 21:58 -40.45892 152.86737 37404 ft 494 kts 139°
2026-05-07 21:59 -40.48310 152.89966 37717 ft 495 kts 139°
2026-05-07 21:59 -40.50730 152.93202 38035 ft 495 kts 139°
2026-05-07 21:59 -40.53147 152.96437 38344 ft 496 kts 139°
2026-05-07 21:59 -40.55563 152.99674 38600 ft 496 kts 139°
2026-05-07 22:00 -40.57951 153.02878 38817 ft 497 kts 139°
2026-05-07 22:00 -40.60370 153.06127 39055 ft 497 kts 139°
2026-05-07 22:00 -40.62786 153.09374 39283 ft 497 kts 139°
2026-05-07 22:00 -40.65207 153.12633 39513 ft 497 kts 139°
2026-05-07 22:01 -40.67625 153.15890 39741 ft 498 kts 138°
2026-05-07 22:01 -40.70050 153.19161 39964 ft 498 kts 138°
2026-05-07 22:01 -40.72473 153.22433 40174 ft 498 kts 138°
2026-05-07 22:01 -40.74894 153.25705 40378 ft 498 kts 138°
2026-05-07 22:02 -40.77315 153.28981 40584 ft 499 kts 138°
2026-05-07 22:02 -40.79710 153.32226 40694 ft 500 kts 138°
2026-05-07 22:02 -40.84556 153.38803 40708 ft 499 kts 138°
2026-05-07 22:03 -40.89397 153.45386 40708 ft 499 kts 138°
2026-05-07 22:03 -40.94237 153.51984 40700 ft 500 kts 138°
2026-05-07 22:04 -40.99084 153.58604 40695 ft 500 kts 137°
2026-05-07 22:04 -41.03895 153.65192 40693 ft 500 kts 137°
2026-05-07 22:05 -41.08728 153.71824 40691 ft 500 kts 137°
2026-05-07 22:05 -41.13565 153.78476 40699 ft 501 kts 137°
2026-05-07 22:06 -41.18406 153.85150 40689 ft 501 kts 137°
2026-05-07 22:06 -41.23211 153.91789 40691 ft 501 kts 137°
2026-05-07 22:07 -41.28043 153.98480 40684 ft 501 kts 137°
2026-05-07 22:07 -41.32872 154.05182 40689 ft 501 kts 137°
2026-05-07 22:08 -41.37670 154.11857 40675 ft 502 kts 137°
2026-05-07 22:08 -41.42509 154.18604 40687 ft 502 kts 136°
2026-05-07 22:09 -41.47297 154.25296 40677 ft 501 kts 136°
2026-05-07 22:09 -41.52116 154.32046 40675 ft 501 kts 136°
2026-05-07 22:10 -41.56925 154.38798 40678 ft 502 kts 136°
2026-05-07 22:10 -41.61730 154.45559 40675 ft 503 kts 136°
2026-05-07 22:11 -41.66529 154.52327 40674 ft 503 kts 136°
2026-05-07 22:11 -41.71359 154.59155 40682 ft 503 kts 136°
2026-05-07 22:12 -41.76144 154.65937 40672 ft 503 kts 136°
2026-05-07 22:12 -41.80983 154.72811 40670 ft 505 kts 136°
2026-05-07 22:13 -41.85775 154.79632 40670 ft 505 kts 135°
2026-05-07 22:13 -41.90598 154.86515 40675 ft 506 kts 135°
2026-05-07 22:14 -41.95416 154.93407 40672 ft 506 kts 135°
2026-05-07 22:14 -41.99663 155.00954 40673 ft 510 kts 120°
2026-05-07 22:15 -42.02393 155.09735 40671 ft 514 kts 109°
2026-05-07 22:15 -42.04443 155.18966 40672 ft 515 kts 107°
2026-05-07 22:16 -42.06389 155.28262 40675 ft 515 kts 107°
2026-05-07 22:16 -42.08375 155.37473 40675 ft 515 kts 108°
2026-05-07 22:17 -42.10413 155.46738 40675 ft 515 kts 108°
2026-05-07 22:17 -42.12454 155.55995 40675 ft 515 kts 108°
2026-05-07 22:18 -42.15490 155.69855 40675 ft 516 kts 107°
2026-05-07 22:19 -42.17514 155.79154 40675 ft 516 kts 107°
2026-05-07 22:19 -42.19518 155.88408 40678 ft 516 kts 107°
2026-05-07 22:20 -42.21524 155.97709 40677 ft 516 kts 107°
2026-05-07 22:20 -42.23524 156.07025 40678 ft 516 kts 107°
2026-05-07 22:21 -42.25505 156.16290 40677 ft 516 kts 107°
2026-05-07 22:21 -42.27161 156.24065 40677 ft 516 kts 107°
2026-05-07 22:22 -42.29142 156.33408 40678 ft 516 kts 107°
2026-05-07 22:22 -42.31100 156.42682 40677 ft 516 kts 107°
2026-05-07 22:23 -42.33067 156.52042 40675 ft 515 kts 107°
2026-05-07 22:23 -42.35007 156.61319 40674 ft 516 kts 106°
2026-05-07 22:24 -42.36956 156.70676 40672 ft 516 kts 106°
2026-05-07 22:24 -42.38885 156.79976 40672 ft 516 kts 106°
2026-05-07 22:25 -42.40818 156.89336 40674 ft 516 kts 106°
2026-05-07 22:25 -42.42744 156.98709 40672 ft 516 kts 105°
2026-05-07 22:26 -42.44651 157.08032 40669 ft 516 kts 105°
2026-05-07 22:26 -42.46562 157.17420 40669 ft 516 kts 105°
2026-05-07 22:27 -42.48467 157.26815 40667 ft 516 kts 105°
2026-05-07 22:27 -42.50353 157.36165 40664 ft 516 kts 105°
2026-05-07 22:28 -42.52240 157.45567 40664 ft 516 kts 105°
2026-05-07 22:28 -42.54123 157.54987 40657 ft 516 kts 104°
2026-05-07 22:29 -42.55985 157.64354 40663 ft 517 kts 104°
2026-05-07 22:29 -42.57852 157.73779 40660 ft 518 kts 104°
2026-05-07 22:30 -42.59716 157.83240 40659 ft 518 kts 104°
2026-05-07 22:30 -42.61572 157.92701 40661 ft 518 kts 104°
2026-05-07 22:31 -42.63405 158.02092 40659 ft 518 kts 104°
2026-05-07 22:31 -42.65251 158.11599 40650 ft 518 kts 104°
2026-05-07 22:32 -42.67070 158.21010 40641 ft 518 kts 104°
2026-05-07 22:32 -42.68892 158.30480 40651 ft 516 kts 103°
2026-05-07 22:33 -42.70703 158.39938 40650 ft 516 kts 103°
2026-05-07 22:33 -42.72498 158.49363 40650 ft 517 kts 103°
2026-05-07 22:34 -42.74296 158.58852 40650 ft 516 kts 103°
2026-05-07 22:34 -42.76084 158.68328 40648 ft 516 kts 103°
2026-05-07 22:35 -42.77855 158.77762 40640 ft 517 kts 103°
2026-05-07 22:35 -42.79629 158.87261 40633 ft 516 kts 103°
2026-05-07 22:36 -42.81382 158.96698 40636 ft 517 kts 103°
2026-05-07 22:36 -42.83144 159.06230 40635 ft 518 kts 103°
2026-05-07 22:37 -42.84896 159.15749 40627 ft 517 kts 103°
2026-05-07 22:37 -42.86627 159.25205 40630 ft 518 kts 102°
2026-05-07 22:38 -42.88368 159.34768 40620 ft 518 kts 102°
2026-05-07 22:38 -42.90096 159.44308 40616 ft 518 kts 102°
2026-05-07 22:39 -42.91819 159.53862 40605 ft 518 kts 102°
2026-05-07 22:39 -42.93526 159.63384 40612 ft 518 kts 102°
2026-05-07 22:40 -42.95234 159.72957 40602 ft 519 kts 102°
2026-05-07 22:40 -42.96925 159.82486 40594 ft 519 kts 102°
2026-05-07 22:41 -42.98617 159.92070 40596 ft 519 kts 102°
2026-05-07 22:41 -43.00552 160.01602 40593 ft 523 kts 108°
2026-05-07 22:42 -43.03112 160.10905 40584 ft 523 kts 109°
2026-05-07 22:42 -43.05773 160.20146 40579 ft 521 kts 109°
2026-05-07 22:43 -43.08428 160.29369 40578 ft 525 kts 109°
2026-05-07 22:43 -43.11086 160.38662 40567 ft 525 kts 109°
2026-05-07 22:44 -43.13720 160.47937 40560 ft 521 kts 109°
2026-05-07 22:44 -43.16340 160.57196 40564 ft 521 kts 109°
2026-05-07 22:45 -43.18944 160.66444 40558 ft 524 kts 109°
2026-05-07 22:45 -43.21557 160.75754 40548 ft 524 kts 109°
2026-05-07 22:46 -43.24169 160.85100 40529 ft 523 kts 109°
2026-05-07 22:46 -43.26748 160.94358 40533 ft 522 kts 109°
2026-05-07 22:47 -43.29344 161.03714 40525 ft 525 kts 109°
2026-05-07 22:47 -43.31939 161.13102 40526 ft 525 kts 109°
2026-05-07 22:48 -43.34508 161.22427 40502 ft 525 kts 108°
2026-05-07 22:48 -43.37087 161.31831 40507 ft 524 kts 108°
2026-05-07 22:49 -43.39656 161.41229 40511 ft 524 kts 108°
2026-05-07 22:49 -43.42197 161.50564 40503 ft 524 kts 108°
2026-05-07 22:50 -43.44751 161.59978 40485 ft 524 kts 108°
2026-05-07 22:50 -43.47298 161.69410 40496 ft 525 kts 108°
2026-05-07 22:51 -43.49821 161.78784 40494 ft 525 kts 108°
2026-05-07 22:51 -43.52357 161.88243 40493 ft 525 kts 108°
2026-05-07 22:52 -43.54866 161.97640 40493 ft 525 kts 108°
2026-05-07 22:52 -43.57382 162.07100 40495 ft 525 kts 108°
2026-05-07 22:53 -43.59889 162.16562 40486 ft 524 kts 108°
2026-05-07 22:53 -43.62389 162.26035 40478 ft 524 kts 108°
2026-05-07 22:54 -43.64868 162.35468 40490 ft 526 kts 107°
2026-05-07 22:54 -43.67367 162.45016 40491 ft 527 kts 107°
2026-05-07 22:55 -43.69838 162.54492 40488 ft 526 kts 107°
2026-05-07 22:55 -43.72317 162.64037 40492 ft 527 kts 107°
2026-05-07 22:56 -43.74786 162.73581 40484 ft 527 kts 107°
2026-05-07 22:56 -43.77234 162.83086 40490 ft 527 kts 107°
2026-05-07 22:57 -43.79689 162.92655 40477 ft 527 kts 107°
2026-05-07 22:57 -43.82131 163.02223 40493 ft 527 kts 106°
2026-05-07 22:58 -43.84357 163.11872 40492 ft 526 kts 104°
2026-05-07 22:58 -43.86475 163.21596 40505 ft 526 kts 104°
2026-05-07 22:59 -43.88594 163.31246 40516 ft 526 kts 104°
2026-05-07 22:59 -43.90745 163.40947 40498 ft 526 kts 104°
2026-05-07 23:00 -43.92897 163.50647 40516 ft 526 kts 104°
2026-05-07 23:00 -43.95044 163.60367 40507 ft 526 kts 104°
2026-05-07 23:01 -43.97168 163.70038 40514 ft 527 kts 104°
2026-05-07 23:01 -43.99297 163.79775 40518 ft 527 kts 103°
2026-05-07 23:02 -44.01420 163.89531 40520 ft 527 kts 103°
2026-05-07 23:02 -44.03521 163.99229 40523 ft 528 kts 103°
2026-05-07 23:03 -44.05632 164.09021 40522 ft 528 kts 103°
2026-05-07 23:03 -44.07738 164.18834 40526 ft 528 kts 103°
2026-05-07 23:04 -44.09834 164.28641 40522 ft 529 kts 102°
2026-05-07 23:04 -44.11911 164.38411 40531 ft 529 kts 102°
2026-05-07 23:05 -44.13993 164.48253 40537 ft 530 kts 102°
2026-05-07 23:05 -44.16059 164.58065 40539 ft 530 kts 102°
2026-05-07 23:06 -44.18126 164.67929 40547 ft 531 kts 102°
2026-05-07 23:06 -44.20190 164.77823 40544 ft 532 kts 102°
2026-05-07 23:07 -44.22250 164.87744 40548 ft 532 kts 102°
2026-05-07 23:07 -44.24297 164.97654 40528 ft 532 kts 101°
2026-05-07 23:08 -44.26339 165.07591 40550 ft 533 kts 101°
2026-05-07 23:08 -44.28366 165.17502 40551 ft 533 kts 101°
2026-05-07 23:09 -44.30395 165.27469 40557 ft 533 kts 101°
2026-05-07 23:09 -44.32416 165.37445 40559 ft 533 kts 101°
2026-05-07 23:10 -44.34087 165.45738 40558 ft 533 kts 101°
2026-05-07 23:10 -44.36091 165.55720 40565 ft 533 kts 101°
2026-05-07 23:11 -44.38084 165.65702 40550 ft 533 kts 101°
2026-05-07 23:11 -44.40061 165.75658 40567 ft 534 kts 101°
2026-05-07 23:12 -44.42043 165.85684 40572 ft 534 kts 101°
2026-05-07 23:12 -44.44006 165.95670 40572 ft 534 kts 101°
2026-05-07 23:13 -44.45978 166.05735 40573 ft 534 kts 101°
2026-05-07 23:13 -44.47922 166.15714 40580 ft 535 kts 100°
2026-05-07 23:14 -44.49872 166.25772 40589 ft 535 kts 100°
2026-05-07 23:14 -44.51815 166.35844 40567 ft 535 kts 100°
2026-05-07 23:15 -44.53747 166.45913 40307 ft 535 kts 100°
2026-05-07 23:15 -44.54710 166.50957 40064 ft 536 kts 100°
2026-05-07 23:15 -44.55674 166.56013 39829 ft 536 kts 100°
2026-05-07 23:15 -44.56623 166.61006 39595 ft 536 kts 100°
2026-05-07 23:16 -44.57583 166.66070 39381 ft 536 kts 100°
2026-05-07 23:16 -44.58543 166.71143 39116 ft 536 kts 100°
2026-05-07 23:16 -44.59494 166.76186 38691 ft 533 kts 100°
2026-05-07 23:16 -44.60443 166.81225 37992 ft 533 kts 99°
2026-05-07 23:17 -44.61266 166.86274 37239 ft 527 kts 92°
2026-05-07 23:17 -44.61560 166.91337 36550 ft 513 kts 81°
2026-05-07 23:17 -44.61452 166.96251 35849 ft 508 kts 78°
2026-05-07 23:17 -44.61266 167.01198 35125 ft 505 kts 77°
2026-05-07 23:18 -44.61074 167.06121 34359 ft 502 kts 76°
2026-05-07 23:18 -44.60891 167.10959 33510 ft 489 kts 75°
2026-05-07 23:18 -44.60714 167.15665 32629 ft 476 kts 75°
2026-05-07 23:18 -44.60534 167.20267 31786 ft 474 kts 75°
2026-05-07 23:19 -44.60343 167.24864 30922 ft 479 kts 76°
2026-05-07 23:19 -44.60150 167.29553 30010 ft 482 kts 76°
2026-05-07 23:19 -44.60010 167.34292 29167 ft 488 kts 81°
2026-05-07 23:19 -44.60183 167.39001 28529 ft 479 kts 85°
2026-05-07 23:20 -44.60444 167.43685 27849 ft 482 kts 85°
2026-05-07 23:20 -44.60712 167.48367 27145 ft 480 kts 86°
2026-05-07 23:20 -44.60973 167.52970 26510 ft 477 kts 86°
2026-05-07 23:20 -44.61234 167.57598 25859 ft 473 kts 86°
2026-05-07 23:21 -44.61487 167.62174 25196 ft 468 kts 87°
2026-05-07 23:21 -44.61736 167.66715 24532 ft 464 kts 87°
2026-05-07 23:21 -44.61980 167.71214 23882 ft 456 kts 88°
2026-05-07 23:21 -44.62215 167.75548 23247 ft 449 kts 88°
2026-05-07 23:22 -44.62447 167.79945 22507 ft 449 kts 88°
2026-05-07 23:22 -44.62677 167.84310 21849 ft 447 kts 89°
2026-05-07 23:22 -44.62915 167.88651 21172 ft 444 kts 88°
2026-05-07 23:22 -44.63138 167.92949 20534 ft 437 kts 88°
2026-05-07 23:23 -44.63354 167.97115 19881 ft 424 kts 88°
2026-05-07 23:23 -44.63561 168.01280 19262 ft 428 kts 87°
2026-05-07 23:23 -44.63771 168.05435 18618 ft 426 kts 88°
2026-05-07 23:23 -44.63980 168.09577 17975 ft 423 kts 88°
2026-05-07 23:24 -44.64186 168.13585 17484 ft 404 kts 88°
2026-05-07 23:24 -44.64389 168.17360 17375 ft 371 kts 87°
2026-05-07 23:24 -44.64571 168.20845 17265 ft 346 kts 86°
2026-05-07 23:24 -44.64736 168.24165 17138 ft 335 kts 85°
2026-05-07 23:25 -44.64890 168.27384 17003 ft 325 kts 85°
2026-05-07 23:25 -44.65041 168.30505 16889 ft 317 kts 85°
2026-05-07 23:25 -44.65185 168.33614 16746 ft 320 kts 85°
2026-05-07 23:25 -44.65327 168.36692 16599 ft 320 kts 85°
2026-05-07 23:26 -44.65575 168.39815 16204 ft 326 kts 95°
2026-05-07 23:26 -44.66484 168.42789 15843 ft 340 kts 120°
2026-05-07 23:26 -44.68163 168.45180 15462 ft 345 kts 137°
2026-05-07 23:26 -44.70049 168.47252 15076 ft 343 kts 141°
2026-05-07 23:27 -44.73843 168.51317 14397 ft 343 kts 140°
2026-05-07 23:27 -44.75737 168.53376 14100 ft 346 kts 140°
2026-05-07 23:27 -44.77780 168.55162 13867 ft 349 kts 159°
2026-05-07 23:28 -44.80118 168.55721 13632 ft 334 kts 188°
2026-05-07 23:28 -44.82303 168.55058 13302 ft 311 kts 204°
2026-05-07 23:28 -44.84353 168.54087 12976 ft 313 kts 205°
2026-05-07 23:28 -44.86413 168.53071 12616 ft 312 kts 205°
2026-05-07 23:29 -44.88427 168.52092 12307 ft 308 kts 205°
2026-05-07 23:29 -44.90449 168.51124 11981 ft 307 kts 205°
2026-05-07 23:29 -44.92482 168.50156 11653 ft 307 kts 205°
2026-05-07 23:29 -44.94494 168.49164 11309 ft 304 kts 207°
2026-05-07 23:30 -44.96210 168.47612 11007 ft 283 kts 234°
2026-05-07 23:30 -44.97285 168.45391 10702 ft 273 kts 251°
2026-05-07 23:30 -44.98205 168.43021 10390 ft 278 kts 245°
2026-05-07 23:30 -44.99551 168.41039 10080 ft 291 kts 220°
2026-05-07 23:31 -45.01480 168.40022 9838 ft 311 kts 190°
2026-05-07 23:31 -45.03703 168.40080 9759 ft 325 kts 176°
2026-05-07 23:31 -45.05948 168.40427 9522 ft 322 kts 175°
2026-05-07 23:31 -45.08152 168.40785 9278 ft 313 kts 176°
2026-05-07 23:32 -45.10222 168.41493 9077 ft 303 kts 153°
2026-05-07 23:32 -45.11726 168.43370 8869 ft 283 kts 119°
2026-05-07 23:32 -45.12266 168.45852 8605 ft 250 kts 83°
2026-05-07 23:32 -45.11822 168.48042 8392 ft 220 kts 55°
2026-05-07 23:33 -45.11131 168.49921 8007 ft 212 kts 56°
2026-05-07 23:33 -45.10525 168.51755 7629 ft 206 kts 60°
2026-05-07 23:33 -45.09981 168.53672 6921 ft 215 kts 65°
2026-05-07 23:33 -45.09305 168.55643 5958 ft 230 kts 57°
2026-05-07 23:34 -45.08428 168.57617 5013 ft 242 kts 56°
2026-05-07 23:34 -45.07515 168.59626 4326 ft 241 kts 57°
2026-05-07 23:34 -45.06642 168.61574 4026 ft 224 kts 57°
2026-05-07 23:34 -45.05868 168.63318 3972 ft 200 kts 57°
2026-05-07 23:35 -45.05172 168.64893 3897 ft 177 kts 57°
2026-05-07 23:35 -45.04554 168.66294 3809 ft 161 kts 57°
2026-05-07 23:35 -45.03973 168.67609 3579 ft 158 kts 58°
2026-05-07 23:35 -45.03374 168.68967 3151 ft 166 kts 58°
2026-05-07 23:36 -45.02756 168.70359 2527 ft 177 kts 58°
2026-05-07 23:36 -45.02204 168.71985 1745 ft 190 kts 76°
2026-05-07 23:36 -45.01974 168.73759 1265 ft 177 kts 76°
2026-05-07 23:36 -45.01722 168.75145 1214 ft 95 kts 348°
2026-05-07 23:37 -45.01611 168.75375 1188 ft 4 kts 290°
2026-05-07 23:37 -45.04501 168.66417 3791 ft 160 kts 57°
2026-05-07 23:37 -44.64872 168.27032 17043 ft 324 kts 91°
2026-05-07 23:37 -44.65011 168.30116 16946 ft 321 kts 85°
2026-05-07 23:38 -44.65155 168.33246 16814 ft 321 kts 85°
2026-05-07 23:38 -44.65306 168.36383 16684 ft 321 kts 85°
2026-05-07 23:38 -44.65457 168.39515 16550 ft 319 kts 85°
2026-05-07 23:38 -44.65728 168.42599 16188 ft 329 kts 100°
2026-05-07 23:39 -44.66898 168.45398 15882 ft 341 kts 130°
2026-05-07 23:39 -44.68826 168.47345 15531 ft 343 kts 149°
2026-05-07 23:39 -44.70897 168.49016 15157 ft 343 kts 148°
2026-05-07 23:39 -44.72909 168.50810 14794 ft 342 kts 144°
2026-05-07 23:40 -44.74873 168.52717 14420 ft 343 kts 142°
2026-05-07 23:40 -44.76840 168.54605 14079 ft 343 kts 149°
2026-05-07 23:40 -44.79063 168.55703 13700 ft 337 kts 176°
2026-05-07 23:40 -44.81348 168.55440 13373 ft 325 kts 201°
2026-05-07 23:41 -44.83502 168.54481 13086 ft 328 kts 205°
2026-05-07 23:41 -44.85657 168.53423 12803 ft 331 kts 205°
2026-05-07 23:41 -44.87831 168.52374 12203 ft 329 kts 205°
2026-05-07 23:41 -44.89995 168.51337 11597 ft 327 kts 205°
2026-05-07 23:42 -44.92146 168.50308 11009 ft 326 kts 204°
2026-05-07 23:42 -44.94292 168.49292 10386 ft 324 kts 206°
2026-05-07 23:42 -44.96149 168.47660 10075 ft 308 kts 232°
2026-05-07 23:42 -44.97358 168.45301 9378 ft 297 kts 249°
2026-05-07 23:43 -44.98403 168.42742 8790 ft 302 kts 240°
2026-05-07 23:43 -44.99942 168.40774 8481 ft 306 kts 213°
2026-05-07 23:43 -45.01984 168.39992 8083 ft 308 kts 184°
2026-05-07 23:43 -45.04119 168.40158 7676 ft 306 kts 175°
2026-05-07 23:44 -45.06220 168.40489 7296 ft 301 kts 174°
2026-05-07 23:44 -45.08261 168.40814 7133 ft 289 kts 174°
2026-05-07 23:44 -45.10185 168.41373 6971 ft 277 kts 155°
2026-05-07 23:44 -45.11593 168.43060 6790 ft 260 kts 119°
2026-05-07 23:45 -45.12033 168.45414 6638 ft 241 kts 82°
2026-05-07 23:45 -45.11576 168.47596 6516 ft 225 kts 63°
2026-05-07 23:45 -45.10974 168.49571 6335 ft 220 kts 64°
2026-05-07 23:45 -45.10411 168.51597 5773 ft 223 kts 68°
2026-05-07 23:46 -45.09891 168.53712 4902 ft 233 kts 70°
2026-05-07 23:46 -45.09186 168.55865 3770 ft 250 kts 59°
2026-05-07 23:46 -45.08251 168.58002 2784 ft 256 kts 57°
2026-05-07 23:46 -45.07309 168.60095 2381 ft 247 kts 57°
2026-05-07 23:47 -45.06397 168.62133 2353 ft 246 kts 57°
2026-05-07 23:47 -45.05516 168.64118 2064 ft 229 kts 58°
2026-05-07 23:47 -45.04720 168.65918 2005 ft 201 kts 58°
2026-05-07 23:47 -45.04043 168.67452 2018 ft 166 kts 58°
2026-05-07 23:48 -45.03481 168.68727 1980 ft 143 kts 58°
2026-05-07 23:48 -45.02970 168.69888 1679 ft 134 kts 58°
2026-05-07 23:48 -45.02535 168.70989 1443 ft 122 kts 66°
2026-05-07 23:48 -45.02286 168.72061 1355 ft 131 kts 73°
2026-05-07 23:49 -45.02036 168.73332 1238 ft 122 kts 76°
2026-05-07 23:49 -45.01888 168.74282 1185 ft 48 kts 77°
2026-05-07 23:49 -45.01869 168.74400 1175 ft 0 kts 77°
2026-05-07 23:50 -45.01863 168.74435 1182 ft 18 kts 78°
2026-05-07 23:50 -45.01832 168.74638 1176 ft 0 kts 78°
2026-05-07 23:50 -45.01829 168.74656 1175 ft 17 kts 78°
2026-05-07 23:51 -45.01868 168.74836 1175 ft 1 kts 152°